New York, NY

2:57 AM EST on November 15, 2019 (GMT -0500)
La Guardia

Weather History for KLGA - August, 2019

Change the Weather History Date:

Thursday, August 1, 2019

  Actual Average Record
Temperature  
Mean Temperature 81 °F 78 °F  
Max Temperature 88 °F 85 °F 100 °F (2006)
Min Temperature 73 °F 70 °F 62 °F (1947)
Degree Days  
Heating Degree Days 0 0  
Month to date heating degree days 0 0  
Since 1 June heating degree days 4 16  
Since 1 July heating degree days 0 0  
Cooling Degree Days 16 13  
Month to date cooling degree days 16 13  
Year to date cooling degree days 841 695  
Since 1 June cooling degree days 779 629  
Growing Degree Days 30 (Base 50)    
Moisture  
Dew Point 59 °F    
Average Humidity 60    
Maximum Humidity 87    
Minimum Humidity 32    
Precipitation  
Precipitation 0.00 in 0.15 in 2.03 in (1971)
Month to date precipitation 0.00 0.15  
Year to date precipitation 32.70 26.28  
Snow  
Snow 0.00 in 0.00 in - ()
Month to date snowfall 0.0 0.0  
Since 1 July snowfall 0.0 0.0  
Snow Depth 0.00 in    
Sea Level Pressure  
Sea Level Pressure 30.06 in    
Wind  
Wind Speed 7 mph (NE)    
Max Wind Speed 12 mph    
Max Gust Speed 20 mph    
Visibility 10 miles    
Events      
T = Trace of Precipitation, MM = Missing Value Source: NWS Daily Summary

Daily Weather History Graph

Daily Weather History Graph

Search for Another Location

Airport or City:

Astronomy

Aug. 01, 2019 Rise Set
Actual Time 5:51 AM EDT 8:11 PM EDT
Civil Twilight 5:20 AM EDT 8:41 PM EDT
Nautical Twilight 4:42 AM EDT 9:19 PM EDT
Astronomical Twilight 4:00 AM EDT 10:01 PM EDT
Moon 6:12 AM EDT (8/1) 8:56 PM EDT (8/1)
Length of Visible Light 15h 21m
Length of Day
14h 19m
New Moon, 0% of the Moon is Illuminated
Aug 1
New Moon
Aug 7
First Quarter
Aug 15
Full
Aug 23
Last Quarter
Aug 30
New

Hourly Weather History & Observations

Time (EDT) Temp. Heat Index Dew Point Humidity Pressure Visibility Wind Dir Wind Speed Gust Speed Precip Events Conditions
12:51 AM 73.9 °F - 66.9 °F 79% 30.04 in 10.0 mi NE 3.5 mph - N/A   Mostly Cloudy
1:51 AM 75.0 °F - 66.9 °F 76% 30.04 in 10.0 mi Calm Calm - N/A   Overcast
2:51 AM 75.0 °F - 66.9 °F 76% 30.03 in 9.0 mi NW 3.5 mph - N/A   Overcast
3:51 AM 73.9 °F - 69.1 °F 85% 30.02 in 7.0 mi NW 6.9 mph - N/A   Mostly Cloudy
4:51 AM 73.9 °F - 68.0 °F 82% 30.03 in 8.0 mi NNW 8.1 mph - N/A   Mostly Cloudy
5:51 AM 73.0 °F - 68.0 °F 84% 30.04 in 9.0 mi Calm Calm - N/A   Mostly Cloudy
6:51 AM 73.0 °F - 68.0 °F 84% 30.06 in 10.0 mi NE 4.6 mph - N/A   Mostly Cloudy
7:51 AM 75.0 °F - 64.0 °F 69% 30.07 in 10.0 mi NNE 6.9 mph - N/A   Mostly Cloudy
8:51 AM 77.0 °F - 61.0 °F 58% 30.08 in 10.0 mi NNE 8.1 mph - N/A   Mostly Cloudy
9:51 AM 80.1 °F 81.1 °F 61.0 °F 52% 30.09 in 10.0 mi NE 11.5 mph - N/A   Mostly Cloudy
10:51 AM 80.1 °F 80.9 °F 60.1 °F 50% 30.10 in 10.0 mi NE 8.1 mph - N/A   Mostly Cloudy
11:51 AM 82.0 °F 81.6 °F 55.9 °F 41% 30.10 in 10.0 mi ENE 8.1 mph - N/A   Mostly Cloudy
12:51 PM 84.0 °F 82.5 °F 53.1 °F 34% 30.10 in 10.0 mi East 9.2 mph - N/A   Scattered Clouds
1:51 PM 86.0 °F 84.0 °F 53.1 °F 32% 30.09 in 10.0 mi ENE 6.9 mph - N/A   Partly Cloudy
2:51 PM 86.0 °F 84.0 °F 53.1 °F 32% 30.08 in 10.0 mi Variable 4.6 mph - N/A   Scattered Clouds
3:51 PM 86.0 °F 84.7 °F 55.9 °F 36% 30.06 in 10.0 mi NE 8.1 mph - N/A   Scattered Clouds
4:51 PM 87.1 °F 85.3 °F 55.0 °F 33% 30.05 in 10.0 mi NE 8.1 mph - N/A   Mostly Cloudy
5:51 PM 87.1 °F 85.7 °F 55.9 °F 35% 30.04 in 10.0 mi NE 9.2 mph - N/A   Mostly Cloudy
6:51 PM 86.0 °F 84.5 °F 55.0 °F 35% 30.04 in 10.0 mi Variable 3.5 mph - N/A   Mostly Cloudy
7:51 PM 84.0 °F 82.5 °F 53.1 °F 34% 30.05 in 10.0 mi South 8.1 mph - N/A   Mostly Cloudy
8:51 PM 82.0 °F 81.2 °F 53.1 °F 37% 30.07 in 10.0 mi South 10.4 mph - N/A   Mostly Cloudy
9:51 PM 82.0 °F 81.2 °F 53.1 °F 37% 30.08 in 10.0 mi SSW 9.2 mph - N/A   Mostly Cloudy
10:51 PM 82.0 °F - 51.1 °F 34% 30.08 in 10.0 mi SSW 8.1 mph - N/A   Partly Cloudy
11:51 PM 81.0 °F - 52.0 °F 36% 30.09 in 10.0 mi SSW 3.5 mph - N/A   Scattered Clouds